Location: ???? ???? ?????
(31.2680°N, 31.7283°E)
Time: 03:36:10
(UTC+00:00)

Cosmos 158 Rocket - Pass Details

Date: 13 July 2020
Orbit: 698 x 794 km, 74.0° (Epoch: 11 August)

Event Time Altitude Azimuth Distance (km) Brightness Sun altitude
Exits shadow 18:42:05 18° 189° (S) 1,658 5.4 -19.1°
Maximum altitude 18:45:38 79° 105° (ESE) 715 3.7 -19.7°
Drops below altitude 10° 18:50:31 10° 19° (NNE) 2,175 6.6 -20.4°
Sets 18:52:52 0° 18° (NNE) 3,105 7.5 -20.8°
